Torna al catalogo

STARLINK-35989

AttivoComunicazioniVLEO
NORAD 66819·PAYLOAD·🇺🇸 United States

Lanciato Dec 1, 2025 da Cape Canaveral Space Force Station

Loading…

Prossimi Passaggi (prossime 24 ore)

TLE

AggiornatoSource: CelesTrak SupGP

Epoca: Sep 15, 2026, 03:36 UTC

1 66819C 25278AE  26258.15048611  .00047449  00000+0  17184-2 0  2581
2 66819  43.0022 124.4628 0001369 271.5275  94.7274 15.27558468    13

Traccia STARLINK-35989 in tempo reale con AllMySat

Download on the App Store